Regional Weather Roundup
Issued by NWS Sterling, VA

Home | Current Version | Previous Version | Graphics & Text | Print | Product List | Glossary On
Versions: 1 2 3 4 5 6 7 8 9 10 11 12 13 14 15 16 17 18 19 20 21 22 23 24 25 26 27 28 29 30 31 32 33 34 35 36 37 38 39 40 41 42 43 44 45 46 47 48 49 50
000
ASUS41 KLWX 241110
RWRLWX

REGIONAL WEATHER ROUNDUP
NATIONAL WEATHER SERVICE BALTIMORE MD/WASHINGTON DC
700 AM EDT SUN MAY 24 2015

Note: "FAIR" indicates few or no clouds below 12,000 feet
with no significant weather and/or obstructions to visibility.
 TC=TEMPERATURE CELSIUS

 * =Non NWS site. Station does not report precipitation (e.g. rain,
    snow, etc.), thunder, or fog.

DCZ001-MDZ009-015-VAZ040>042-051-053>054-241200-
WASHINGTON METRO

CITY           SKY/WX    TMP DP  RH WIND       PRES   REMARKS
WASHINGTON NAT MOSUNNY   60  51  72 SE5       30.40S
DULLES         MOSUNNY   52  49  89 CALM      30.39R
ANDREWS AFB    SUNNY     54  49  82 S6        30.39R
FT BELVOIR     SUNNY     51  49  94 CALM      30.40R
QUANTICO       SUNNY     60  51  72 SW7       30.41R
COLLEGE PARK*  SUNNY     50  50 100 CALM      30.39S
LEESBURG*      SUNNY     50  50 100 CALM      30.40R
GAITHERSBURG*  SUNNY     54  46  76 SE3       30.43S

$$

MDZ006>007-011-014-241200-
BALTIMORE METRO

CITY           SKY/WX    TMP DP  RH WIND       PRES   REMARKS
BWI AIRPORT    MOSUNNY   52  46  80 CALM      30.39S
MD SCIENCE CTR   N/A     58  45  62 MISG      30.40S
MARTIN STATE   SUNNY     59  54  82 CALM      30.40S
ANNAPOLIS      MOSUNNY   58  52  80 S6        30.39S

$$

MDZ012-015-019>023-241200-
MARYLAND EASTERN SHORE

CITY           SKY/WX    TMP DP  RH WIND       PRES   REMARKS
OCEAN CITY     SUNNY     60  54  80 SW7       30.42R
SALISBURY      SUNNY     51  49  92 CALM      30.42R
BAY BRIDGE AP*   N/A    N/A N/A N/A S3        30.40S
CAMBRIDGE*     SUNNY     54  52  94 CALM      30.40S
EASTON*        MOSUNNY   55  55 100 CALM      30.44R

$$

MDZ017>025-241200-
SOUTHERN MARYLAND

CITY           SKY/WX    TMP DP  RH WIND       PRES   REMARKS
PATUXENT RIVER PTSUNNY   58  51  78 SE3       30.40R
ST INIGOES     MOSUNNY   60  49  66 S7        30.40R
LEONARDTOWN*   MOSUNNY   55  46  71 SW3       30.42S

$$

MDZ003>005-241200-
NORTH CENTRAL MARYLAND

CITY           SKY/WX    TMP DP  RH WIND       PRES   REMARKS
FREDERICK*     SUNNY     46  46 100 CALM      30.41S
HAGERSTOWN APT SUNNY     56  43  61 CALM      30.38R
WESTMINSTER*   SUNNY     52  45  76 SE3       30.38S

$$

MDZ501>502-241200-
WESTERN MARYLAND

CITY           SKY/WX    TMP DP  RH WIND       PRES   REMARKS
OAKLAND*       SUNNY     54  41  62 S3        30.41R
CUMBERLAND*    SUNNY     45  45 100 CALM      30.44R

$$

VAZ025>031-241200-
SHENANDOAH VALLEY

CITY           SKY/WX    TMP DP  RH WIND       PRES   REMARKS
WINCHESTER*    SUNNY     50  45  81 CALM      30.38R
FRONT ROYAL*   FAIR      50  46  87 CALM      30.38R
LURAY*         FAIR      52  52 100 CALM      30.39R
NEW MARKET*    FAIR      47  47  98 CALM      30.39S
STAUNTON*      SUNNY     49  47  93 CALM      30.41S
WAYNESBORO*    FAIR      49  47  93 CALM      30.40S

$$

WVZ021-048>050-054>055-241200-
EASTERN WEST VIRGINIA PANHANDLE

CITY           SKY/WX    TMP DP  RH WIND       PRES   REMARKS
MARTINSBURG    SUNNY     48  46  93 CALM      30.39R
PETERSBURG*    SUNNY     45  42  91 CALM      30.42R

$$

VAZ036>039-050-241200-
CENTRAL FOOTHILLS

CITY           SKY/WX    TMP DP  RH WIND       PRES   REMARKS
CHARLOTTESVILL SUNNY     51  49  92 W5        30.39R
CULPEPER*      SUNNY     49  48  99 CALM      30.40S
ORANGE*        SUNNY     54  52  94 CALM      30.41R
GORDONSVILLE*  FAIR      49  48  96 CALM      30.39R
WARRENTON*     FAIR      53  53  99 CALM      30.38S

$$

VAZ055>057-241200-
NORTH AND CENTRAL PIEDMONT

CITY           SKY/WX    TMP DP  RH WIND       PRES   REMARKS
FREDERICKSBRG* SUNNY     56  54  94 SE3       30.40R
STAFFORD*      SUNNY     49  48  94 CALM      30.44R

$$

NCZ024-NYZ072-PAZ021-071-VAZ022-071-241200-
OTHER REGIONAL OBSERVATIONS

CITY           SKY/WX    TMP DP  RH WIND       PRES   REMARKS
NEW YORK CITY  SUNNY     57  40  52 VRB3      30.39R
PHILADELPHIA   MOSUNNY   56  50  80 SW7       30.40S
PITTSBURGH     SUNNY     50  42  74 CALM      30.35R
ROANOKE        CLEAR     52  49  89 VRB3      30.42R
RICHMOND       PTSUNNY   54  49  83 CALM      30.41R
RALEIGH        PTCLDY    58  54  86 CALM      30.42R

$$

ANZ530>537-241200-
MARINE OBSERVATIONS

STATION/POSITION TIME  TEMP    WIND        PRES
                       AIR SEA DIR/SP/G
                 (UTC) (F)     (DEG/KT/KT) (MB)
THOMAS PT LIGHT  1100   61 65  190/  9/ 10 1030.0R
BALT KEY BRIDGE  1000   58     170/  4/  5 1028.9R
LEWISETTA        1000   60 67              1029.2R
SOLOMONS ISLAND  1000      67                N/A
PINEY POINT      1000          190/  6/  7   N/A

$$




USA.gov is the U.S. government's official web portal to all federal, state and local government web resources and services.